Location: Risskov
(56.1972°N, 10.2480°E)
Time: 23:47:02
(UTC+00:00)

Cosmos 1606 - Pass Details

Date: 05 July 2020
Orbit: 505 x 527 km, 82.5° (Epoch: 03 August)

Event Time Altitude Azimuth Distance (km) Brightness Sun altitude
Rises 22:43:02 0° 346° (NNW) 2,664 8.5 -10.7°
Reaches altitude 10° 22:45:11 10° 344° (NNW) 1,774 7.0 -10.7°
Maximum altitude 22:49:03 68° 261° (W) 570 2.9 -10.8°
Enters shadow 22:52:05 16° 180° (S) 1,432 4.3 -10.9°
